,,PA_Meas_PMT16A,,PR_Meas_QMR101_102,,RH_Meas_QMH101,,SR_Meas_QMS101,,TA_Meas_QMH101,,GenWind,,GenWind,
time,status,PA,status,PR,status,RH,status,SR,status,TA,status,DirAvg,status,SpdAvg,
2010-03-10, 00:00:04,VALID,921.135,VALID,0,VALID,95.9712,VALID,0,VALID,19.5063,VALID,12,VALID,0.224609,
2010-03-10, 00:01:04,VALID,921.139,VALID,0,VALID,95.9864,VALID,0.107441,VALID,19.5273,VALID,12,VALID,0.288281,
2010-03-10, 00:02:04,VALID,921.133,VALID,0,VALID,95.834,VALID,0,VALID,19.4478,VALID,12,VALID,0.439063,
2010-03-10, 00:03:04,VALID,921.118,VALID,0,VALID,95.7425,VALID,0.107441,VALID,19.3893,VALID,12,VALID,0.550781,
2010-03-10, 00:04:04,VALID,921.102,VALID,0,VALID,95.8721,VALID,0,VALID,19.3698,VALID,12,VALID,0.437109,
2010-03-10, 00:05:04,VALID,921.086,VALID,0,VALID,96.0627,VALID,0,VALID,19.3698,VALID,12,VALID,0.508594,
2010-03-10, 00:06:04,VALID,921.055,VALID,0,VALID,96.1008,VALID,0,VALID,19.3908,VALID,12,VALID,0.392578,
2010-03-10, 00:07:04,VALID,921.015,VALID,0,VALID,96.0245,VALID,0.107441,VALID,19.4103,VALID,12,VALID,0.3875,
2010-03-10, 00:08:04,VALID,921.032,VALID,0,VALID,95.9102,VALID,0.107441,VALID,19.4283,VALID,12,VALID,0.441406,
2010-03-10, 00:09:04,VALID,921.011,VALID,0,VALID,95.7577,VALID,0,VALID,19.4883,VALID,12,VALID,0.607813,
2010-03-10, 00:10:04,VALID,920.978,VALID,0,VALID,95.5748,VALID,0.107441,VALID,19.4673,VALID,12,VALID,0.769141,
2010-03-10, 00:11:04,VALID,920.96,VALID,0,VALID,95.5443,VALID,0.107441,VALID,19.4673,VALID,12,VALID,0.862109,
2010-03-10, 00:12:04,VALID,920.96,VALID,0,VALID,95.6434,VALID,0,VALID,19.4673,VALID,12,VALID,1.1793,
2010-03-10, 00:13:05,VALID,920.927,VALID,0,VALID,95.8492,VALID,0.107441,VALID,19.4673,VALID,12,VALID,1.04492,
2010-03-10, 00:14:05,VALID,920.88,VALID,0,VALID,96.0017,VALID,0.107441,VALID,19.4493,VALID,116,VALID,0.914844,
2010-03-10, 00:15:05,VALID,920.864,VALID,0,VALID,96.1008,VALID,0,VALID,19.4298,VALID,116,VALID,1.18125,
2010-03-10, 00:16:05,VALID,920.865,VALID,0,VALID,96.238,VALID,0.107441,VALID,19.4298,VALID,116,VALID,0.910156,
2010-03-10, 00:17:05,VALID,920.838,VALID,0,VALID,96.3295,VALID,0,VALID,19.4103,VALID,116,VALID,0.892969,
2010-03-10, 00:18:05,VALID,920.804,VALID,0,VALID,96.4133,VALID,0.107441,VALID,19.4103,VALID,116,VALID,0.930078,
2010-03-10, 00:19:05,VALID,920.759,VALID,0,VALID,96.5048,VALID,0.107441,VALID,19.4298,VALID,117,VALID,0.483984,
2010-03-10, 00:20:05,VALID,920.706,VALID,0,VALID,96.5887,VALID,0,VALID,19.4283,VALID,129,VALID,0.395312,
2010-03-10, 00:21:05,VALID,920.654,VALID,0,VALID,96.6115,VALID,0,VALID,19.4493,VALID,130,VALID,0.898047,
2010-03-10, 00:22:05,VALID,920.613,VALID,0,VALID,96.6725,VALID,0,VALID,19.4673,VALID,179,VALID,0.917969,
2010-03-10, 00:23:05,VALID,920.586,VALID,0,VALID,96.6954,VALID,0,VALID,19.4883,VALID,175,VALID,0.944531,
2010-03-10, 00:24:05,VALID,920.504,VALID,0,VALID,96.7793,VALID,0,VALID,19.4868,VALID,128,VALID,0.7625,
2010-03-10, 00:25:05,VALID,920.481,VALID,0,VALID,96.7869,VALID,0,VALID,19.4883,VALID,128,VALID,0.995313,
2010-03-10, 00:26:05,VALID,920.465,VALID,0,VALID,96.7869,VALID,0,VALID,19.4673,VALID,128,VALID,0.649219,
2010-03-10, 00:27:05,VALID,920.4,VALID,0,VALID,96.8555,VALID,0.107441,VALID,19.4673,VALID,128,VALID,0.941406,
2010-03-10, 00:28:05,VALID,920.34,VALID,0,VALID,96.886,VALID,0,VALID,19.4868,VALID,130,VALID,1.02305,
2010-03-10, 00:29:05,VALID,920.319,VALID,0,VALID,96.9089,VALID,0,VALID,19.4883,VALID,155,VALID,0.626953,
2010-03-10, 00:30:05,VALID,920.275,VALID,0,VALID,96.947,VALID,0,VALID,19.4883,VALID,155,VALID,0.951953,
2010-03-10, 00:31:05,VALID,920.263,VALID,0,VALID,96.9698,VALID,0,VALID,19.4883,VALID,155,VALID,0.539063,
2010-03-10, 00:32:05,VALID,920.217,VALID,0,VALID,96.9775,VALID,0,VALID,19.5078,VALID,155,VALID,0.998438,
2010-03-10, 00:33:05,VALID,920.17,VALID,0,VALID,96.9851,VALID,0.107441,VALID,19.4868,VALID,155,VALID,0.736328,
2010-03-10, 00:34:05,VALID,920.159,VALID,0,VALID,97.0156,VALID,0,VALID,19.4883,VALID,155,VALID,0.50625,
2010-03-10, 00:35:05,VALID,920.128,VALID,0,VALID,97.0385,VALID,0,VALID,19.5078,VALID,155,VALID,0.233594,
2010-03-10, 00:36:05,VALID,920.085,VALID,0,VALID,97.0308,VALID,0.107441,VALID,19.4868,VALID,155,VALID,0.581641,
2010-03-10, 00:37:05,VALID,920.048,VALID,0,VALID,97.0537,VALID,0,VALID,19.4688,VALID,155,VALID,0.313281,
2010-03-10, 00:38:05,VALID,920.035,VALID,0,VALID,97.0385,VALID,0.107441,VALID,19.4688,VALID,155,VALID,0.467578,
2010-03-10, 00:39:05,VALID,920.051,VALID,0,VALID,97.0308,VALID,0.107441,VALID,19.4493,VALID,155,VALID,0.366406,
2010-03-10, 00:40:05,VALID,920.007,VALID,0,VALID,97.0613,VALID,0,VALID,19.4103,VALID,155,VALID,0.701563,
2010-03-10, 00:41:05,VALID,919.976,VALID,0,VALID,97.0537,VALID,0,VALID,19.4103,VALID,155,VALID,0.699219,
2010-03-10, 00:42:05,VALID,919.949,VALID,0,VALID,97.0385,VALID,0.107441,VALID,19.4103,VALID,155,VALID,0.475,
2010-03-10, 00:43:05,VALID,919.87,VALID,0,VALID,96.9241,VALID,0,VALID,19.3503,VALID,155,VALID,0.630078,
2010-03-10, 00:44:05,VALID,919.868,VALID,0,VALID,96.9622,VALID,0,VALID,19.3323,VALID,155,VALID,0.591797,
2010-03-10, 00:45:05,VALID,919.804,VALID,0,VALID,97.008,VALID,0.107441,VALID,19.3308,VALID,155,VALID,0.0449219,
2010-03-10, 00:46:05,VALID,919.773,VALID,0,VALID,97.0156,VALID,0.107441,VALID,19.3323,VALID,155,VALID,0,
2010-03-10, 00:47:05,VALID,919.754,VALID,0,VALID,97.008,VALID,0,VALID,19.3113,VALID,155,VALID,0,
2010-03-10, 00:48:05,VALID,919.686,VALID,0,VALID,97.0003,VALID,0,VALID,19.3128,VALID,155,VALID,0.185156,
2010-03-10, 00:49:05,VALID,919.702,VALID,0,VALID,96.8936,VALID,0,VALID,19.2528,VALID,155,VALID,0.496094,
2010-03-10, 00:50:05,VALID,919.721,VALID,0,VALID,96.947,VALID,0,VALID,19.2738,VALID,155,VALID,0.635547,
2010-03-10, 00:51:05,VALID,919.694,VALID,0,VALID,96.9851,VALID,0,VALID,19.2738,VALID,155,VALID,0.828516,
2010-03-10, 00:52:05,VALID,919.674,VALID,0,VALID,96.9927,VALID,0.107441,VALID,19.2738,VALID,155,VALID,0.335938,
2010-03-10, 00:53:05,VALID,919.685,VALID,0,VALID,96.9927,VALID,0,VALID,19.2933,VALID,155,VALID,0.046875,
2010-03-10, 00:54:05,VALID,919.639,VALID,0,VALID,97.0003,VALID,0,VALID,19.2933,VALID,155,VALID,0.0625,
2010-03-10, 00:55:05,VALID,919.634,VALID,0,VALID,97.008,VALID,0,VALID,19.2933,VALID,155,VALID,0.046875,
2010-03-10, 00:56:05,VALID,919.622,VALID,0,VALID,96.9012,VALID,0,VALID,19.2334,VALID,155,VALID,0.571094,
2010-03-10, 00:57:05,VALID,919.619,VALID,0,VALID,96.886,VALID,0,VALID,19.2348,VALID,155,VALID,0.160156,
2010-03-10, 00:58:05,VALID,919.594,VALID,0,VALID,96.9241,VALID,0,VALID,19.2348,VALID,155,VALID,0,
2010-03-10, 00:59:05,VALID,919.59,VALID,0,VALID,96.9012,VALID,0,VALID,19.2348,VALID,155,VALID,0,
2010-03-10, 01:00:05,VALID,919.588,VALID,0,VALID,96.8707,VALID,0,VALID,19.2153,VALID,155,VALID,0,
2010-03-10, 01:01:05,VALID,919.585,VALID,0,VALID,96.7945,VALID,0,VALID,19.1749,VALID,155,VALID,0,
2010-03-10, 01:02:05,VALID,919.592,VALID,0,VALID,96.7716,VALID,0.107441,VALID,19.1568,VALID,155,VALID,0,
2010-03-10, 01:03:05,VALID,919.589,VALID,0,VALID,96.703,VALID,0.107441,VALID,19.1178,VALID,155,VALID,0.420312,
2010-03-10, 01:04:05,VALID,919.575,VALID,0,VALID,96.703,VALID,0.107441,VALID,19.0983,VALID,155,VALID,0.442969,
2010-03-10, 01:05:05,VALID,919.589,VALID,0,VALID,96.6802,VALID,0,VALID,19.0593,VALID,155,VALID,0.249609,
2010-03-10, 01:06:05,VALID,919.563,VALID,0,VALID,96.7488,VALID,0,VALID,19.0398,VALID,155,VALID,0.423438,
2010-03-10, 01:07:05,VALID,919.562,VALID,0,VALID,96.8021,VALID,0.107441,VALID,19.0593,VALID,155,VALID,0.140625,
2010-03-10, 01:08:05,VALID,919.552,VALID,0,VALID,96.8021,VALID,0,VALID,19.0593,VALID,155,VALID,0,
2010-03-10, 01:09:05,VALID,919.528,VALID,0,VALID,96.7107,VALID,0,VALID,18.9799,VALID,155,VALID,0.478906,
2010-03-10, 01:10:05,VALID,919.5,VALID,0,VALID,96.642,VALID,0,VALID,18.9619,VALID,155,VALID,0.266406,
2010-03-10, 01:11:05,VALID,919.517,VALID,0,VALID,96.5658,VALID,0,VALID,18.9034,VALID,155,VALID,0,
2010-03-10, 01:12:05,VALID,919.55,VALID,0,VALID,96.5277,VALID,0,VALID,18.8644,VALID,155,VALID,0,
2010-03-10, 01:13:05,VALID,919.569,VALID,0,VALID,96.5811,VALID,0,VALID,18.8644,VALID,155,VALID,0.409375,
2010-03-10, 01:14:05,VALID,919.565,VALID,0,VALID,96.7716,VALID,0.107441,VALID,18.9229,VALID,155,VALID,0.672656,
2010-03-10, 01:15:05,VALID,919.554,VALID,0,VALID,96.9165,VALID,0,VALID,18.9604,VALID,155,VALID,0.438672,
2010-03-10, 01:16:05,VALID,919.556,VALID,0,VALID,96.9546,VALID,0,VALID,18.9814,VALID,155,VALID,0.282813,
2010-03-10, 01:17:05,VALID,919.566,VALID,0,VALID,96.9012,VALID,0.107441,VALID,18.9814,VALID,155,VALID,0.287109,
2010-03-10, 01:18:05,VALID,919.57,VALID,0,VALID,96.825,VALID,0,VALID,18.9034,VALID,155,VALID,0.321875,
2010-03-10, 01:19:05,VALID,919.548,VALID,0,VALID,96.8936,VALID,0,VALID,18.8839,VALID,155,VALID,0.658594,
2010-03-10, 01:20:05,VALID,919.541,VALID,0,VALID,96.9698,VALID,0,VALID,18.8839,VALID,155,VALID,0.803125,
2010-03-10, 01:21:05,VALID,919.515,VALID,0,VALID,96.8784,VALID,0,VALID,18.8449,VALID,155,VALID,0.903516,
2010-03-10, 01:22:05,VALID,919.483,VALID,0,VALID,96.9089,VALID,0,VALID,18.785,VALID,155,VALID,0.861328,
2010-03-10, 01:23:05,VALID,919.494,VALID,0,VALID,97.0537,VALID,0,VALID,18.8644,VALID,155,VALID,0.798437,
2010-03-10, 01:24:05,VALID,919.47,VALID,0,VALID,97.1147,VALID,0,VALID,18.8839,VALID,155,VALID,0.737891,
2010-03-10, 01:25:05,VALID,919.501,VALID,0,VALID,97.2062,VALID,0,VALID,18.9424,VALID,155,VALID,0.867969,
2010-03-10, 01:26:05,VALID,919.507,VALID,0,VALID,97.2595,VALID,0,VALID,18.9814,VALID,155,VALID,0.709766,
2010-03-10, 01:27:05,VALID,919.527,VALID,0,VALID,97.2824,VALID,0.107441,VALID,19.0203,VALID,155,VALID,0.594922,
2010-03-10, 01:28:05,VALID,919.565,VALID,0,VALID,97.2977,VALID,0,VALID,19.0593,VALID,155,VALID,0.315625,
2010-03-10, 01:29:05,VALID,919.561,VALID,0,VALID,97.3129,VALID,0,VALID,19.0593,VALID,155,VALID,0.237891,
2010-03-10, 01:30:05,VALID,919.57,VALID,0,VALID,97.3434,VALID,0,VALID,19.0998,VALID,155,VALID,0.303125,
2010-03-10, 01:31:05,VALID,919.557,VALID,0,VALID,97.3586,VALID,0,VALID,19.1373,VALID,155,VALID,0.326562,
2010-03-10, 01:32:05,VALID,919.549,VALID,0,VALID,97.3891,VALID,0,VALID,19.1568,VALID,155,VALID,0.528906,
2010-03-10, 01:33:05,VALID,919.526,VALID,0,VALID,97.4044,VALID,0,VALID,19.1763,VALID,155,VALID,0.421875,
2010-03-10, 01:34:05,VALID,919.53,VALID,0,VALID,97.3891,VALID,0,VALID,19.1749,VALID,155,VALID,0.302734,
2010-03-10, 01:35:05,VALID,919.526,VALID,0,VALID,97.3358,VALID,0,VALID,19.1973,VALID,155,VALID,0.501172,
2010-03-10, 01:36:05,VALID,919.506,VALID,0,VALID,97.3739,VALID,0,VALID,19.1763,VALID,155,VALID,0.591797,
2010-03-10, 01:37:05,VALID,919.494,VALID,0,VALID,97.3815,VALID,0,VALID,19.1568,VALID,155,VALID,0.382031,
2010-03-10, 01:38:05,VALID,919.447,VALID,0,VALID,97.3815,VALID,0,VALID,19.1763,VALID,155,VALID,0.667578,
2010-03-10, 01:39:05,VALID,919.46,VALID,0,VALID,97.3586,VALID,0,VALID,19.1749,VALID,155,VALID,0.901953,
2010-03-10, 01:40:05,VALID,919.461,VALID,0,VALID,97.3968,VALID,0,VALID,19.1763,VALID,155,VALID,1.0375,
2010-03-10, 01:41:05,VALID,919.471,VALID,0,VALID,97.4196,VALID,0,VALID,19.1958,VALID,155,VALID,1.06484,
2010-03-10, 01:42:05,VALID,919.46,VALID,0,VALID,97.3891,VALID,0,VALID,19.1958,VALID,155,VALID,0.959375,
2010-03-10, 01:43:05,VALID,919.463,VALID,0,VALID,97.3129,VALID,0,VALID,19.1763,VALID,155,VALID,0.829297,
2010-03-10, 01:44:05,VALID,919.512,VALID,0,VALID,97.3434,VALID,0,VALID,19.1763,VALID,154,VALID,0.9125,
2010-03-10, 01:45:05,VALID,919.509,VALID,0,VALID,97.3281,VALID,0,VALID,19.2153,VALID,154,VALID,1.22773,
2010-03-10, 01:46:05,VALID,919.496,VALID,0,VALID,97.3434,VALID,0,VALID,19.2334,VALID,154,VALID,1.01016,
2010-03-10, 01:47:05,VALID,919.479,VALID,0,VALID,97.2748,VALID,0,VALID,19.2528,VALID,97,VALID,1.04609,
2010-03-10, 01:48:05,VALID,919.498,VALID,0,VALID,97.1833,VALID,0,VALID,19.2348,VALID,66,VALID,1.17266,
2010-03-10, 01:49:05,VALID,919.493,VALID,0,VALID,97.1604,VALID,0,VALID,19.2348,VALID,66,VALID,1.31758,
2010-03-10, 01:50:05,VALID,919.507,VALID,0,VALID,97.1528,VALID,0,VALID,19.2543,VALID,66,VALID,0.35625,
2010-03-10, 01:51:05,VALID,919.508,VALID,0,VALID,97.1299,VALID,0,VALID,19.2543,VALID,66,VALID,0.469141,
2010-03-10, 01:52:05,VALID,919.523,VALID,0,VALID,97.1223,VALID,0,VALID,19.2933,VALID,66,VALID,0.306641,
2010-03-10, 01:53:05,VALID,919.565,VALID,0,VALID,97.0994,VALID,0,VALID,19.3128,VALID,66,VALID,0.638672,
2010-03-10, 01:54:05,VALID,919.581,VALID,0,VALID,97.0156,VALID,0,VALID,19.2723,VALID,66,VALID,0.853125,
2010-03-10, 01:55:05,VALID,919.578,VALID,0,VALID,97.0003,VALID,0.107441,VALID,19.2528,VALID,66,VALID,0.448047,
2010-03-10, 01:56:05,VALID,919.575,VALID,0,VALID,96.9775,VALID,0,VALID,19.2543,VALID,66,VALID,0.613281,
2010-03-10, 01:57:05,VALID,919.489,VALID,0,VALID,96.9698,VALID,0,VALID,19.2348,VALID,66,VALID,0.724609,
2010-03-10, 01:58:05,VALID,919.491,VALID,0,VALID,96.9622,VALID,0,VALID,19.2153,VALID,66,VALID,0.780859,
2010-03-10, 01:59:05,VALID,919.477,VALID,0,VALID,97.0385,VALID,0.107441,VALID,19.2153,VALID,66,VALID,0.538281,
2010-03-10, 02:00:05,VALID,919.417,VALID,0,VALID,97.0537,VALID,0,VALID,19.1958,VALID,66,VALID,0.5375,
2010-03-10, 02:01:05,VALID,919.441,VALID,0,VALID,97.1071,VALID,0,VALID,19.2348,VALID,66,VALID,0,
2010-03-10, 02:02:05,VALID,919.415,VALID,0,VALID,97.1681,VALID,0,VALID,19.2543,VALID,66,VALID,0,
2010-03-10, 02:03:05,VALID,919.448,VALID,0,VALID,97.1909,VALID,0.107441,VALID,19.2933,VALID,66,VALID,0,
2010-03-10, 02:04:05,VALID,919.467,VALID,0,VALID,97.2138,VALID,0,VALID,19.2933,VALID,66,VALID,0,
2010-03-10, 02:05:05,VALID,919.448,VALID,0,VALID,97.2443,VALID,0,VALID,19.2933,VALID,66,VALID,0.382031,
2010-03-10, 02:06:05,VALID,919.47,VALID,0,VALID,97.2519,VALID,0,VALID,19.3128,VALID,66,VALID,0.574219,
2010-03-10, 02:07:05,VALID,919.437,VALID,0,VALID,97.1909,VALID,0,VALID,19.2933,VALID,66,VALID,0.413281,
2010-03-10, 02:08:05,VALID,919.411,VALID,0,VALID,97.1452,VALID,0,VALID,19.2738,VALID,66,VALID,0.501562,
2010-03-10, 02:09:05,VALID,919.414,VALID,0,VALID,97.1604,VALID,0,VALID,19.2543,VALID,66,VALID,0.441797,
2010-03-10, 02:10:05,VALID,919.382,VALID,0,VALID,97.1986,VALID,0,VALID,19.2528,VALID,66,VALID,0.421094,
2010-03-10, 02:11:05,VALID,919.368,VALID,0,VALID,97.2214,VALID,0,VALID,19.2933,VALID,66,VALID,0.333203,
2010-03-10, 02:12:05,VALID,919.345,VALID,0,VALID,97.2062,VALID,0,VALID,19.2933,VALID,66,VALID,0.161719,
2010-03-10, 02:13:05,VALID,919.338,VALID,0,VALID,97.1909,VALID,0,VALID,19.2528,VALID,66,VALID,0.154687,
2010-03-10, 02:14:05,VALID,919.333,VALID,0,VALID,97.1757,VALID,0,VALID,19.2738,VALID,66,VALID,0.370703,
2010-03-10, 02:15:05,VALID,919.327,VALID,0,VALID,97.1604,VALID,0,VALID,19.2738,VALID,66,VALID,0.508594,
2010-03-10, 02:16:05,VALID,919.328,VALID,0,VALID,97.1757,VALID,0,VALID,19.2528,VALID,66,VALID,0.114844,
2010-03-10, 02:17:05,VALID,919.318,VALID,0,VALID,97.1833,VALID,0,VALID,19.2933,VALID,66,VALID,0.00117188,
2010-03-10, 02:18:05,VALID,919.292,VALID,0,VALID,97.1833,VALID,0.107441,VALID,19.2723,VALID,66,VALID,0.116016,
2010-03-10, 02:19:05,VALID,919.289,VALID,0,VALID,97.1833,VALID,0,VALID,19.3128,VALID,66,VALID,0,
2010-03-10, 02:20:05,VALID,919.267,VALID,0,VALID,97.1452,VALID,0,VALID,19.3128,VALID,66,VALID,0.257031,
2010-03-10, 02:21:05,VALID,919.276,VALID,0,VALID,97.0918,VALID,0,VALID,19.2933,VALID,66,VALID,0.207422,
2010-03-10, 02:22:05,VALID,919.264,VALID,0,VALID,97.0842,VALID,0,VALID,19.2933,VALID,66,VALID,0.185547,
2010-03-10, 02:23:05,VALID,919.262,VALID,0,VALID,97.0613,VALID,0,VALID,19.2933,VALID,66,VALID,0.409766,
2010-03-10, 02:24:05,VALID,919.274,VALID,0,VALID,97.0766,VALID,0,VALID,19.2738,VALID,66,VALID,0.243359,
2010-03-10, 02:25:05,VALID,919.305,VALID,0,VALID,97.069,VALID,0,VALID,19.2738,VALID,66,VALID,0.410156,
2010-03-10, 02:26:05,VALID,919.306,VALID,0,VALID,97.0613,VALID,0,VALID,19.2543,VALID,66,VALID,0.173828,
2010-03-10, 02:27:05,VALID,919.316,VALID,0,VALID,97.069,VALID,0,VALID,19.2738,VALID,66,VALID,0.154687,
2010-03-10, 02:28:05,VALID,919.328,VALID,0,VALID,97.0918,VALID,0,VALID,19.2723,VALID,66,VALID,0.170703,
2010-03-10, 02:29:05,VALID,919.306,VALID,0,VALID,97.0842,VALID,0,VALID,19.2933,VALID,66,VALID,0.518359,
2010-03-10, 02:30:05,VALID,919.317,VALID,0,VALID,97.0766,VALID,0,VALID,19.2933,VALID,66,VALID,0.378125,
2010-03-10, 02:31:05,VALID,919.311,VALID,0,VALID,97.0994,VALID,0,VALID,19.2738,VALID,66,VALID,0.337891,
2010-03-10, 02:32:05,VALID,919.319,VALID,0,VALID,97.1376,VALID,0,VALID,19.2933,VALID,66,VALID,0.540625,
2010-03-10, 02:33:05,VALID,919.335,VALID,0,VALID,97.1452,VALID,0,VALID,19.3128,VALID,66,VALID,0.558594,
2010-03-10, 02:34:05,VALID,919.33,VALID,0,VALID,97.1528,VALID,0,VALID,19.3128,VALID,66,VALID,0.145703,
2010-03-10, 02:35:05,VALID,919.336,VALID,0,VALID,97.1604,VALID,0,VALID,19.3323,VALID,66,VALID,0.04375,
2010-03-10, 02:36:05,VALID,919.338,VALID,0,VALID,97.1223,VALID,0,VALID,19.3113,VALID,66,VALID,0.199609,
2010-03-10, 02:37:05,VALID,919.323,VALID,0,VALID,97.1223,VALID,0,VALID,19.3128,VALID,66,VALID,0.157813,
2010-03-10, 02:38:05,VALID,919.298,VALID,0,VALID,97.1604,VALID,0,VALID,19.3128,VALID,66,VALID,0,
2010-03-10, 02:39:05,VALID,919.271,VALID,0,VALID,97.1452,VALID,0.107441,VALID,19.3128,VALID,66,VALID,0,
2010-03-10, 02:40:05,VALID,919.263,VALID,0,VALID,97.1376,VALID,0,VALID,19.3128,VALID,66,VALID,0.185547,
2010-03-10, 02:41:05,VALID,919.26,VALID,0,VALID,97.1147,VALID,0.107441,VALID,19.3128,VALID,66,VALID,0.253906,
2010-03-10, 02:42:05,VALID,919.224,VALID,0,VALID,97.1147,VALID,0,VALID,19.2738,VALID,66,VALID,0.220313,
2010-03-10, 02:43:05,VALID,919.19,VALID,0,VALID,97.1452,VALID,0,VALID,19.2738,VALID,66,VALID,0,
2010-03-10, 02:44:05,VALID,919.187,VALID,0,VALID,97.1986,VALID,0,VALID,19.2723,VALID,66,VALID,0,
2010-03-10, 02:45:05,VALID,919.189,VALID,0,VALID,97.2138,VALID,0.107441,VALID,19.2918,VALID,66,VALID,0.323438,
2010-03-10, 02:46:05,VALID,919.179,VALID,0,VALID,97.2138,VALID,0.107441,VALID,19.3128,VALID,66,VALID,0,
2010-03-10, 02:47:05,VALID,919.168,VALID,0,VALID,97.2214,VALID,0,VALID,19.2933,VALID,66,VALID,0,
2010-03-10, 02:48:05,VALID,919.165,VALID,0,VALID,97.1833,VALID,0.107441,VALID,19.2933,VALID,66,VALID,0.0632813,
2010-03-10, 02:49:05,VALID,919.133,VALID,0,VALID,97.1757,VALID,0,VALID,19.2738,VALID,66,VALID,0.157813,
2010-03-10, 02:50:05,VALID,919.161,VALID,0,VALID,97.1604,VALID,0.107441,VALID,19.2738,VALID,66,VALID,0,
2010-03-10, 02:51:05,VALID,919.192,VALID,0,VALID,97.1909,VALID,0,VALID,19.2738,VALID,66,VALID,0,
2010-03-10, 02:52:05,VALID,919.165,VALID,0,VALID,97.2062,VALID,0,VALID,19.2738,VALID,66,VALID,0,
2010-03-10, 02:53:05,VALID,919.167,VALID,0,VALID,97.1986,VALID,0,VALID,19.2933,VALID,66,VALID,0,
2010-03-10, 02:54:05,VALID,919.168,VALID,0,VALID,97.1986,VALID,0.107441,VALID,19.2738,VALID,66,VALID,0,
2010-03-10, 02:55:05,VALID,919.156,VALID,0,VALID,97.1757,VALID,0,VALID,19.2543,VALID,66,VALID,0.103906,
2010-03-10, 02:56:05,VALID,919.134,VALID,0,VALID,97.1681,VALID,0,VALID,19.2348,VALID,66,VALID,0.290234,
2010-03-10, 02:57:05,VALID,919.095,VALID,0,VALID,97.1452,VALID,0.107441,VALID,19.2153,VALID,66,VALID,0.318359,
2010-03-10, 02:58:05,VALID,919.076,VALID,0,VALID,97.1681,VALID,0,VALID,19.1763,VALID,66,VALID,0.369531,
2010-03-10, 02:59:04,VALID,919.031,VALID,0,VALID,97.1528,VALID,0,VALID,19.1763,VALID,66,VALID,0.341797,
2010-03-10, 03:00:04,VALID,919,VALID,0,VALID,97.1909,VALID,0,VALID,19.1763,VALID,66,VALID,0.555469,
2010-03-10, 03:01:04,VALID,918.962,VALID,0,VALID,97.2062,VALID,0.107441,VALID,19.1763,VALID,66,VALID,0.811719,
2010-03-10, 03:02:04,VALID,918.96,VALID,0,VALID,97.2062,VALID,0.107441,VALID,19.1763,VALID,66,VALID,0.821484,
2010-03-10, 03:03:04,VALID,918.916,VALID,0,VALID,97.2443,VALID,0.107441,VALID,19.1568,VALID,66,VALID,0.673437,
2010-03-10, 03:04:04,VALID,918.918,VALID,0,VALID,97.2595,VALID,0.107441,VALID,19.1763,VALID,66,VALID,0.880078,
2010-03-10, 03:05:04,VALID,918.899,VALID,0,VALID,97.2748,VALID,0,VALID,19.1958,VALID,66,VALID,0.711719,
2010-03-10, 03:06:04,VALID,918.885,VALID,0,VALID,97.2748,VALID,0,VALID,19.1958,VALID,66,VALID,0.669922,
2010-03-10, 03:07:04,VALID,918.857,VALID,0,VALID,97.2824,VALID,0,VALID,19.1958,VALID,66,VALID,0.804688,
2010-03-10, 03:08:04,VALID,918.848,VALID,0,VALID,97.29,VALID,0,VALID,19.1958,VALID,145,VALID,0.798828,
2010-03-10, 03:09:04,VALID,918.817,VALID,0,VALID,97.29,VALID,0,VALID,19.1958,VALID,145,VALID,0.783984,
2010-03-10, 03:10:04,VALID,918.811,VALID,0,VALID,97.3205,VALID,0.107441,VALID,19.2153,VALID,145,VALID,0.957031,
2010-03-10, 03:11:04,VALID,918.787,VALID,0,VALID,97.3205,VALID,0.107441,VALID,19.2153,VALID,146,VALID,0.8125,
2010-03-10, 03:12:04,VALID,918.811,VALID,0,VALID,97.3434,VALID,0,VALID,19.1944,VALID,146,VALID,0.695313,
2010-03-10, 03:13:04,VALID,918.809,VALID,0,VALID,97.351,VALID,0,VALID,19.2348,VALID,146,VALID,0.610547,
2010-03-10, 03:14:04,VALID,918.794,VALID,0,VALID,97.3434,VALID,0,VALID,19.2348,VALID,146,VALID,0.718359,
2010-03-10, 03:15:04,VALID,918.792,VALID,0,VALID,97.3434,VALID,0,VALID,19.2348,VALID,146,VALID,0.600391,
2010-03-10, 03:16:04,VALID,918.79,VALID,0,VALID,97.3586,VALID,0,VALID,19.2348,VALID,146,VALID,0.35,
2010-03-10, 03:17:04,VALID,918.792,VALID,0,VALID,97.3586,VALID,0.107441,VALID,19.2348,VALID,146,VALID,0.358984,
2010-03-10, 03:18:04,VALID,918.784,VALID,0,VALID,97.3815,VALID,0.107441,VALID,19.2348,VALID,146,VALID,0.317187,
2010-03-10, 03:19:04,VALID,918.746,VALID,0,VALID,97.3586,VALID,0,VALID,19.2139,VALID,146,VALID,0.406641,
2010-03-10, 03:20:04,VALID,918.694,VALID,0,VALID,97.3434,VALID,0,VALID,19.2153,VALID,146,VALID,0.526172,
2010-03-10, 03:21:04,VALID,918.693,VALID,0,VALID,97.351,VALID,0,VALID,19.2153,VALID,146,VALID,0.548047,
2010-03-10, 03:22:04,VALID,918.707,VALID,0,VALID,97.3663,VALID,0,VALID,19.1958,VALID,146,VALID,0.478125,
2010-03-10, 03:23:04,VALID,918.687,VALID,0,VALID,97.3358,VALID,0.107441,VALID,19.1763,VALID,146,VALID,0.709766,
2010-03-10, 03:24:04,VALID,918.722,VALID,0,VALID,97.3586,VALID,0,VALID,19.1763,VALID,146,VALID,0.590625,
2010-03-10, 03:25:04,VALID,918.668,VALID,0,VALID,97.3739,VALID,0.107441,VALID,19.1763,VALID,146,VALID,0.825,
2010-03-10, 03:26:04,VALID,918.668,VALID,0,VALID,97.3891,VALID,0.107441,VALID,19.1763,VALID,146,VALID,0.708984,
2010-03-10, 03:27:04,VALID,918.694,VALID,0,VALID,97.4044,VALID,0.107441,VALID,19.1554,VALID,146,VALID,0.757813,
2010-03-10, 03:28:04,VALID,918.717,VALID,0,VALID,97.412,VALID,0,VALID,19.1763,VALID,154,VALID,0.430469,
2010-03-10, 03:29:04,VALID,918.681,VALID,0,VALID,97.4044,VALID,0,VALID,19.1749,VALID,154,VALID,0.541797,
2010-03-10, 03:30:04,VALID,918.702,VALID,0,VALID,97.4349,VALID,0.107441,VALID,19.1958,VALID,155,VALID,0.372656,
2010-03-10, 03:31:04,VALID,918.664,VALID,0,VALID,97.4273,VALID,0,VALID,19.2168,VALID,155,VALID,0.0777344,
2010-03-10, 03:32:04,VALID,918.643,VALID,0,VALID,97.4349,VALID,0,VALID,19.1958,VALID,155,VALID,0.0328125,
2010-03-10, 03:33:04,VALID,918.66,VALID,0,VALID,97.4349,VALID,0,VALID,19.2168,VALID,155,VALID,0.1125,
2010-03-10, 03:34:04,VALID,918.674,VALID,0,VALID,97.4349,VALID,0,VALID,19.2153,VALID,155,VALID,0.291797,
2010-03-10, 03:35:04,VALID,918.646,VALID,0,VALID,97.4501,VALID,0.107441,VALID,19.1944,VALID,155,VALID,0.608203,
2010-03-10, 03:36:04,VALID,918.643,VALID,0,VALID,97.4501,VALID,0,VALID,19.2153,VALID,155,VALID,0.192969,
2010-03-10, 03:37:04,VALID,918.62,VALID,0,VALID,97.4425,VALID,0.107441,VALID,19.2153,VALID,155,VALID,0.484375,
2010-03-10, 03:38:04,VALID,918.645,VALID,0,VALID,97.4425,VALID,0,VALID,19.1958,VALID,155,VALID,0.386719,
2010-03-10, 03:39:04,VALID,918.607,VALID,0,VALID,97.4349,VALID,0,VALID,19.1958,VALID,155,VALID,0.277734,
2010-03-10, 03:40:04,VALID,918.633,VALID,0,VALID,97.473,VALID,0,VALID,19.1763,VALID,155,VALID,0.705078,
2010-03-10, 03:41:04,VALID,918.59,VALID,0,VALID,97.4501,VALID,0,VALID,19.1749,VALID,155,VALID,0.522656,
2010-03-10, 03:42:04,VALID,918.571,VALID,0,VALID,97.4501,VALID,0,VALID,19.1958,VALID,155,VALID,0.538281,
2010-03-10, 03:43:04,VALID,918.535,VALID,0,VALID,97.4654,VALID,0,VALID,19.1973,VALID,155,VALID,0.397266,